START_TIME,STEP,MOV.,M34,t_acc.,L5,t_acc.,L18,t_acc.,L14,t_acc.
1979-07-20 06:00:24.490 ,0,1,0.,12.0,0.,12.0,0.,12.0,0.,12.0
1979-07-20 06:00:36.490 ,0,1,0.,12.0,0.,12.0,0.,12.0,0.,12.0
1979-07-20 06:00:48.490 ,3,1,0.,12.0,0.,12.0,0.,12.0,0.,12.0
1979-07-20 06:01:00.490 ,3,1,0.,12.0,0.,12.0,0.,12.0,0.,12.0
1979-07-20 06:01:12.490 ,7,1,0.,12.0,0.,12.0,0.,12.0,0.,12.0
1979-07-20 06:01:24.490 ,7,1,0.,12.0,0.,12.0,0.,12.0,0.,12.0
1979-07-20 06:01:36.490 ,4,1,0.,12.0,0.,12.0,0.,12.0,0.,12.0
1979-07-20 06:01:48.490 ,4,1,0.,12.0,0.,12.0,0.,12.0,0.,12.0
1979-07-20 06:02:00.490 ,0,1,0.,12.0,0.,12.0,0.,12.0,0.,12.0
1979-07-20 06:02:12.490 ,0,1,0.,12.0,0.,12.0,0.,12.0,0.,12.0
1979-07-20 06:02:24.490 ,3,1,0.,12.0,0.,12.0,0.,12.0,0.,12.0
1979-07-20 06:02:36.490 ,3,1,0.,12.0,0.,12.0,0.,12.0,0.,12.0
1979-07-20 06:02:48.490 ,7,1,0.,12.0,0.,12.0,0.,12.0,0.,12.0
1979-07-20 06:03:00.490 ,7,1,0.,12.0,0.,12.0,0.,12.0,0.,12.0
1979-07-20 06:03:12.490 ,4,1,0.,12.0,0.,12.0,0.,12.0,0.,12.0
1979-07-20 06:03:24.490 ,4,1,0.,12.0,0.,12.0,0.,12.0,0.,12.0
1979-07-20 06:03:36.490 ,0,1,1.,12.0,0.,12.0,0.,12.0,0.,12.0
1979-07-20 06:03:48.490 ,0,1,0.,12.0,0.,12.0,0.,12.0,0.,12.0
1979-07-20 06:04:00.490 ,3,1,0.,12.0,0.,12.0,0.,12.0,0.,12.0
1979-07-20 06:04:12.490 ,3,1,0.,12.0,0.,12.0,0.,12.0,0.,12.0
1979-07-20 06:04:24.490 ,7,1,0.,12.0,0.,12.0,0.,12.0,0.,12.0
1979-07-20 06:04:36.490 ,7,1,0.,12.0,0.,12.0,0.,12.0,0.,12.0
1979-07-20 06:04:48.490 ,4,1,0.,12.0,0.,12.0,0.,12.0,0.,12.0
1979-07-20 06:05:00.490 ,4,1,0.,12.0,0.,12.0,0.,12.0,0.,12.0
1979-07-20 06:05:12.490 ,0,1,0.,12.0,0.,12.0,0.,12.0,0.,12.0
1979-07-20 06:05:24.490 ,0,1,0.,12.0,0.,12.0,0.,12.0,0.,12.0
1979-07-20 06:05:36.490 ,0,0,0.,12.0,0.,12.0,0.,12.0,0.,12.0
1979-07-20 06:05:48.490 ,0,0,0.,12.0,0.,12.0,0.,12.0,0.,12.0
1979-07-20 06:06:00.490 ,0,0,0.,12.0,0.,12.0,0.,12.0,0.,12.0
1979-07-20 06:06:12.490 ,0,0,0.,12.0,0.,12.0,0.,12.0,0.,12.0
1979-07-20 06:06:24.490 ,5,1,0.,12.0,0.,12.0,0.,12.0,0.,12.0
1979-07-20 06:06:36.490 ,5,1,0.,12.0,0.,12.0,0.,12.0,0.,12.0
1979-07-20 06:06:48.490 ,5,0,0.,12.0,0.,12.0,0.,12.0,0.,12.0
1979-07-20 06:07:00.490 ,5,0,0.,12.0,0.,12.0,0.,12.0,0.,12.0
1979-07-20 06:07:12.490 ,4,1,0.,12.0,0.,12.0,0.,12.0,0.,12.0
1979-07-20 06:07:24.490 ,4,1,0.,12.0,0.,12.0,0.,12.0,0.,12.0
1979-07-20 06:07:36.490 ,4,0,0.,12.0,0.,12.0,0.,12.0,0.,12.0
1979-07-20 06:07:48.490 ,4,0,0.,12.0,0.,12.0,0.,12.0,0.,12.0
1979-07-20 06:08:00.490 ,3,1,0.,12.0,0.,12.0,0.,12.0,0.,12.0
1979-07-20 06:08:12.490 ,3,1,0.,12.0,0.,12.0,0.,12.0,0.,12.0
1979-07-20 06:08:24.490 ,3,0,0.,12.0,0.,12.0,0.,12.0,0.,12.0
1979-07-20 06:08:36.490 ,3,0,0.,12.0,0.,12.0,0.,12.0,0.,12.0
1979-07-20 06:08:48.490 ,2,1,0.,12.0,0.,12.0,0.,12.0,0.,12.0
1979-07-20 06:09:00.490 ,2,1,0.,12.0,0.,12.0,0.,12.0,0.,12.0
1979-07-20 06:09:12.490 ,2,0,0.,12.0,0.,12.0,0.,12.0,0.,12.0
1979-07-20 06:09:24.490 ,2,0,0.,12.0,0.,12.0,0.,12.0,0.,12.0
1979-07-20 06:09:36.490 ,1,1,0.,12.0,0.,12.0,0.,12.0,0.,12.0
1979-07-20 06:09:48.490 ,1,1,0.,12.0,0.,12.0,0.,12.0,0.,12.0
1979-07-20 06:10:00.490 ,1,0,0.,12.0,0.,12.0,0.,12.0,0.,12.0
1979-07-20 06:10:12.490 ,1,0,0.,12.0,0.,12.0,0.,12.0,0.,12.0
1979-07-20 06:10:24.490 ,0,1,0.,12.0,0.,12.0,0.,12.0,0.,12.0
1979-07-20 06:10:36.490 ,0,1,0.,12.0,0.,12.0,0.,12.0,0.,12.0
1979-07-20 06:10:48.490 ,0,0,1.,12.0,0.,12.0,0.,12.0,0.,12.0
1979-07-20 06:11:00.490 ,0,0,0.,12.0,0.,12.0,0.,12.0,0.,12.0
1979-07-20 06:11:12.490 ,0,1,0.,12.0,0.,12.0,0.,12.0,0.,12.0
1979-07-20 06:11:24.490 ,0,1,0.,12.0,0.,12.0,0.,12.0,0.,12.0
1979-07-20 06:11:36.490 ,0,0,0.,12.0,0.,12.0,0.,12.0,0.,12.0
1979-07-20 06:11:48.490 ,0,0,0.,12.0,0.,12.0,0.,12.0,0.,12.0
1979-07-20 06:12:00.490 ,1,1,0.,12.0,0.,12.0,0.,12.0,0.,12.0
1979-07-20 06:12:12.490 ,1,1,0.,12.0,0.,12.0,0.,12.0,0.,12.0
1979-07-20 06:12:24.490 ,1,0,0.,12.0,0.,12.0,0.,12.0,0.,12.0
1979-07-20 06:12:36.490 ,1,0,0.,12.0,0.,12.0,0.,12.0,0.,12.0
1979-07-20 06:12:48.490 ,2,1,0.,12.0,0.,12.0,0.,12.0,0.,12.0
1979-07-20 06:13:00.490 ,2,1,0.,12.0,0.,12.0,0.,12.0,0.,12.0
1979-07-20 06:13:12.490 ,2,0,0.,12.0,0.,12.0,0.,12.0,0.,12.0
1979-07-20 06:13:24.490 ,2,0,0.,12.0,0.,12.0,0.,12.0,0.,12.0
1979-07-20 06:13:36.490 ,3,1,0.,12.0,0.,12.0,0.,12.0,0.,12.0
1979-07-20 06:13:48.490 ,3,1,0.,12.0,0.,12.0,0.,12.0,0.,12.0
1979-07-20 06:14:00.490 ,3,0,0.,12.0,0.,12.0,0.,12.0,0.,12.0
1979-07-20 06:14:12.490 ,3,0,0.,12.0,0.,12.0,0.,12.0,0.,12.0
1979-07-20 06:14:24.490 ,4,1,0.,12.0,0.,12.0,0.,12.0,0.,12.0
1979-07-20 06:14:36.490 ,4,1,0.,12.0,0.,12.0,0.,12.0,0.,12.0
1979-07-20 06:14:48.490 ,4,0,0.,12.0,0.,12.0,0.,12.0,0.,12.0
1979-07-20 06:15:00.490 ,4,0,0.,12.0,0.,12.0,0.,12.0,0.,12.0
1979-07-20 06:16:00.490 ,0,0,0.,12.0,0.,12.0,0.,12.0,0.,12.0
1979-07-20 06:16:12.490 ,0,0,0.,12.0,0.,12.0,0.,12.0,0.,12.0
1979-07-20 06:16:24.490 ,0,0,0.,12.0,0.,12.0,0.,12.0,0.,12.0
1979-07-20 06:16:36.490 ,0,0,0.,12.0,0.,12.0,0.,12.0,0.,12.0
1979-07-20 06:16:48.490 ,7,1,0.,12.0,0.,12.0,0.,12.0,0.,12.0
1979-07-20 06:17:00.490 ,7,1,0.,12.0,0.,12.0,0.,12.0,0.,12.0
1979-07-20 06:17:12.490 ,7,0,0.,12.0,0.,12.0,0.,12.0,0.,12.0
1979-07-20 06:17:24.490 ,7,0,0.,12.0,0.,12.0,0.,12.0,0.,12.0
1979-07-20 06:17:36.490 ,7,1,0.,12.0,0.,12.0,0.,12.0,0.,12.0
1979-07-20 06:17:48.490 ,7,1,0.,12.0,0.,12.0,0.,12.0,0.,12.0
1979-07-20 06:18:00.490 ,7,0,0.,12.0,0.,12.0,0.,12.0,0.,12.0
1979-07-20 06:18:12.490 ,7,0,0.,12.0,0.,12.0,0.,12.0,0.,12.0
1979-07-20 06:18:24.490 ,6,1,0.,12.0,0.,12.0,0.,12.0,0.,12.0
1979-07-20 06:18:36.490 ,6,1,0.,12.0,0.,12.0,0.,12.0,0.,12.0
1979-07-20 06:18:48.490 ,6,0,0.,12.0,0.,12.0,0.,12.0,0.,12.0
1979-07-20 06:19:00.490 ,6,0,0.,12.0,0.,12.0,0.,12.0,0.,12.0
1979-07-20 06:19:12.490 ,5,1,0.,12.0,0.,12.0,0.,12.0,0.,12.0
1979-07-20 06:19:24.490 ,5,1,0.,12.0,0.,12.0,0.,12.0,0.,12.0
1979-07-20 06:19:36.490 ,5,0,0.,12.0,0.,12.0,0.,12.0,0.,12.0
1979-07-20 06:19:48.490 ,5,0,0.,12.0,0.,12.0,0.,12.0,0.,12.0
1979-07-20 06:20:00.490 ,4,1,0.,12.0,0.,12.0,0.,12.0,0.,12.0
1979-07-20 06:20:12.490 ,4,1,0.,12.0,0.,12.0,0.,12.0,0.,12.0
1979-07-20 06:20:24.490 ,4,0,0.,12.0,0.,12.0,0.,12.0,0.,12.0
1979-07-20 06:20:36.490 ,4,0,0.,12.0,0.,12.0,0.,12.0,0.,12.0
1979-07-20 06:20:48.490 ,3,1,0.,12.0,0.,12.0,0.,12.0,0.,12.0
1979-07-20 06:21:00.490 ,3,1,0.,12.0,0.,12.0,0.,12.0,0.,12.0
1979-07-20 06:21:12.490 ,0,0,0.,12.0,0.,12.0,0.,12.0,0.,12.0
1979-07-20 06:21:24.490 ,0,0,0.,12.0,0.,12.0,0.,12.0,0.,12.0
1979-07-20 06:21:41.890 ,0,0,,0,,0,,0,,0
1979-07-20 06:21:53.890 ,0,0,0.,12.0,0.,12.0,0.,12.0,0.,12.0
1979-07-20 06:22:00.490 ,0,0,0.,12.0,0.,12.0,0.,12.0,0.,12.0
1979-07-20 06:22:12.490 ,0,0,0.,12.0,0.,12.0,0.,12.0,0.,12.0
1979-07-20 06:22:24.490 ,1,1,0.,12.0,0.,12.0,0.,12.0,0.,12.0
1979-07-20 06:22:36.490 ,1,1,0.,12.0,0.,12.0,0.,12.0,0.,12.0
1979-07-20 06:22:48.490 ,1,0,0.,12.0,0.,12.0,0.,12.0,0.,12.0
1979-07-20 06:23:00.490 ,1,0,0.,12.0,0.,12.0,0.,12.0,0.,12.0
1979-07-20 06:23:12.490 ,0,1,0.,12.0,0.,12.0,0.,12.0,0.,12.0
1979-07-20 06:23:24.490 ,0,1,0.,12.0,0.,12.0,0.,12.0,0.,12.0
1979-07-20 06:23:36.490 ,0,0,0.,12.0,0.,12.0,0.,12.0,0.,12.0
1979-07-20 06:23:48.490 ,0,0,0.,12.0,0.,12.0,0.,12.0,0.,12.0
1979-07-20 06:24:00.490 ,0,1,0.,12.0,0.,12.0,0.,12.0,0.,12.0
1979-07-20 06:24:12.490 ,0,1,0.,12.0,0.,12.0,0.,12.0,0.,12.0
1979-07-20 06:24:24.490 ,0,0,0.,12.0,0.,12.0,0.,12.0,0.,12.0
1979-07-20 06:24:36.490 ,0,0,0.,12.0,0.,12.0,0.,12.0,0.,12.0
1979-07-20 06:24:48.490 ,1,1,0.,12.0,0.,12.0,0.,12.0,0.,12.0
1979-07-20 06:25:00.490 ,1,1,0.,12.0,0.,12.0,0.,12.0,0.,12.0
1979-07-20 06:25:12.490 ,1,0,0.,12.0,0.,12.0,0.,12.0,0.,12.0
1979-07-20 06:25:24.490 ,1,0,0.,12.0,0.,12.0,0.,12.0,0.,12.0
1979-07-20 06:25:36.490 ,2,1,0.,12.0,0.,12.0,0.,12.0,0.,12.0
1979-07-20 06:25:48.490 ,2,1,0.,12.0,0.,12.0,0.,12.0,0.,12.0
1979-07-20 06:26:00.490 ,2,0,0.,12.0,0.,12.0,0.,12.0,0.,12.0
1979-07-20 06:26:12.490 ,2,0,0.,12.0,0.,12.0,0.,12.0,0.,12.0
1979-07-20 06:26:24.490 ,3,1,0.,12.0,0.,12.0,0.,12.0,0.,12.0
1979-07-20 06:26:36.490 ,3,1,0.,12.0,0.,12.0,0.,12.0,0.,12.0
1979-07-20 06:26:48.490 ,3,0,0.,12.0,0.,12.0,0.,12.0,0.,12.0
1979-07-20 06:27:00.490 ,3,0,0.,12.0,0.,12.0,0.,12.0,0.,12.0
1979-07-20 06:27:12.490 ,4,1,0.,12.0,0.,12.0,0.,12.0,0.,12.0
1979-07-20 06:27:24.490 ,4,1,0.,12.0,0.,12.0,0.,12.0,0.,12.0
1979-07-20 06:27:36.490 ,4,0,0.,12.0,0.,12.0,0.,12.0,0.,12.0
1979-07-20 06:27:48.490 ,4,0,0.,12.0,0.,12.0,0.,12.0,0.,12.0
1979-07-20 06:28:00.490 ,5,1,0.,12.0,0.,12.0,0.,12.0,0.,12.0
1979-07-20 06:28:12.490 ,5,1,0.,12.0,0.,12.0,0.,12.0,0.,12.0
1979-07-20 06:28:24.490 ,5,0,0.,12.0,0.,12.0,0.,12.0,0.,12.0
1979-07-20 06:28:36.490 ,5,0,0.,12.0,0.,12.0,0.,12.0,0.,12.0
1979-07-20 06:28:48.490 ,6,1,0.,12.0,0.,12.0,0.,12.0,0.,12.0
1979-07-20 06:29:00.490 ,6,1,0.,12.0,0.,12.0,0.,12.0,0.,12.0
1979-07-20 06:29:12.490 ,6,0,0.,12.0,0.,12.0,0.,12.0,0.,12.0
1979-07-20 06:29:24.490 ,6,0,0.,12.0,0.,12.0,0.,12.0,0.,12.0
1979-07-20 06:29:36.490 ,7,1,0.,12.0,0.,12.0,0.,12.0,0.,12.0
1979-07-20 06:29:48.490 ,7,1,0.,12.0,0.,12.0,0.,12.0,0.,12.0
1979-07-20 06:30:00.490 ,7,0,0.,12.0,0.,12.0,0.,12.0,0.,12.0
1979-07-20 06:30:12.490 ,7,0,0.,12.0,0.,12.0,0.,12.0,0.,12.0
1979-07-20 06:30:24.490 ,7,1,0.,12.0,0.,12.0,0.,12.0,0.,12.0
1979-07-20 06:30:36.490 ,7,1,0.,12.0,0.,12.0,0.,12.0,0.,12.0
1979-07-20 06:30:48.490 ,7,0,0.,12.0,0.,12.0,0.,12.0,0.,12.0
1979-07-20 06:31:00.490 ,7,0,0.,12.0,0.,12.0,0.,12.0,0.,12.0
1979-07-20 06:31:12.490 ,6,1,0.,12.0,0.,12.0,0.,12.0,0.,12.0
1979-07-20 06:31:24.490 ,6,1,0.,12.0,0.,12.0,0.,12.0,0.,12.0
1979-07-20 06:31:36.490 ,6,0,0.,12.0,0.,12.0,0.,12.0,0.,12.0
1979-07-20 06:31:48.490 ,6,0,0.,12.0,0.,12.0,0.,12.0,0.,12.0
1979-07-20 06:32:00.490 ,5,1,0.,12.0,0.,12.0,0.,12.0,0.,12.0
1979-07-20 06:32:12.490 ,5,1,0.,12.0,0.,12.0,0.,12.0,0.,12.0
1979-07-20 06:32:24.490 ,5,0,0.,12.0,0.,12.0,0.,12.0,0.,12.0
1979-07-20 06:32:36.490 ,5,0,0.,12.0,0.,12.0,0.,12.0,0.,12.0
1979-07-20 06:32:48.490 ,4,1,0.,12.0,0.,12.0,0.,12.0,0.,12.0
1979-07-20 06:33:00.490 ,4,1,0.,12.0,0.,12.0,0.,12.0,0.,12.0
1979-07-20 06:33:12.490 ,4,0,0.,12.0,0.,12.0,0.,12.0,0.,12.0
1979-07-20 06:33:24.490 ,4,0,0.,12.0,0.,12.0,0.,12.0,0.,12.0
1979-07-20 06:33:36.490 ,3,1,0.,12.0,0.,12.0,0.,12.0,0.,12.0
1979-07-20 06:33:48.490 ,3,1,0.,12.0,0.,12.0,0.,12.0,0.,12.0
1979-07-20 06:34:00.490 ,3,0,0.,12.0,0.,12.0,0.,12.0,0.,12.0
1979-07-20 06:34:12.490 ,3,0,0.,12.0,0.,12.0,0.,12.0,0.,12.0
1979-07-20 06:34:24.490 ,2,1,0.,12.0,0.,12.0,0.,12.0,0.,12.0
1979-07-20 06:34:36.490 ,2,1,0.,12.0,0.,12.0,0.,12.0,0.,12.0
1979-07-20 06:34:48.490 ,2,0,0.,12.0,0.,12.0,0.,12.0,0.,12.0
1979-07-20 06:35:00.490 ,2,0,0.,12.0,0.,12.0,0.,12.0,0.,12.0
1979-07-20 06:35:12.490 ,1,1,0.,12.0,0.,12.0,0.,12.0,0.,12.0
1979-07-20 06:35:24.490 ,1,1,0.,12.0,0.,12.0,0.,12.0,0.,12.0
1979-07-20 06:35:36.490 ,1,0,0.,12.0,0.,12.0,0.,12.0,0.,12.0
1979-07-20 06:35:48.490 ,1,0,0.,12.0,0.,12.0,0.,12.0,0.,12.0
1979-07-20 06:36:00.490 ,0,1,0.,12.0,0.,12.0,0.,12.0,0.,12.0
1979-07-20 06:36:12.490 ,0,1,0.,12.0,0.,12.0,0.,12.0,0.,12.0
1979-07-20 06:36:24.490 ,0,0,0.,12.0,0.,12.0,0.,12.0,0.,12.0
1979-07-20 06:36:36.490 ,0,0,0.,12.0,0.,12.0,0.,12.0,0.,12.0
1979-07-20 06:36:48.490 ,0,1,0.,12.0,0.,12.0,0.,12.0,0.,12.0
1979-07-20 06:37:00.490 ,0,1,0.,12.0,0.,12.0,0.,12.0,0.,12.0
1979-07-20 06:37:12.490 ,0,0,0.,12.0,0.,12.0,0.,12.0,0.,12.0
1979-07-20 06:37:24.490 ,0,0,,0,,0,,0,,0
1979-07-20 06:37:32.290 ,0,0,,0,,0,,0,,0
1979-07-20 06:37:44.290 ,0,0,,0,,0,,0,,0
1979-07-20 06:37:36.490 ,1,1,0.,12.0,0.,12.0,0.,12.0,0.,12.0
1979-07-20 06:37:48.490 ,1,1,0.,12.0,0.,12.0,0.,12.0,0.,12.0
1979-07-20 06:38:00.490 ,1,0,0.,12.0,0.,12.0,0.,12.0,0.,12.0
1979-07-20 06:38:12.490 ,1,0,0.,12.0,0.,12.0,0.,12.0,0.,12.0
1979-07-20 06:38:24.490 ,2,1,0.,12.0,0.,12.0,0.,12.0,0.,12.0
1979-07-20 06:38:36.490 ,2,1,0.,12.0,0.,12.0,0.,12.0,0.,12.0
1979-07-20 06:38:48.490 ,2,0,0.,12.0,0.,12.0,0.,12.0,0.,12.0
1979-07-20 06:39:00.490 ,2,0,0.,12.0,0.,12.0,0.,12.0,0.,12.0
1979-07-20 06:39:12.490 ,3,1,0.,12.0,0.,12.0,0.,12.0,0.,12.0
1979-07-20 06:39:24.490 ,3,1,0.,12.0,0.,12.0,0.,12.0,0.,12.0
1979-07-20 06:39:36.490 ,3,0,0.,12.0,0.,12.0,0.,12.0,0.,12.0
1979-07-20 06:39:48.490 ,3,0,0.,12.0,0.,12.0,0.,12.0,0.,12.0
1979-07-20 06:40:00.490 ,4,1,0.,12.0,0.,12.0,0.,12.0,0.,12.0
1979-07-20 06:40:12.490 ,4,1,0.,12.0,0.,12.0,0.,12.0,0.,12.0
1979-07-20 06:40:24.490 ,4,0,0.,12.0,0.,12.0,0.,12.0,0.,12.0
1979-07-20 06:40:36.490 ,4,0,0.,12.0,0.,12.0,0.,12.0,0.,12.0
1979-07-20 06:40:48.490 ,5,1,0.,12.0,0.,12.0,0.,12.0,0.,12.0
1979-07-20 06:41:00.490 ,5,1,0.,12.0,0.,12.0,0.,12.0,0.,12.0
1979-07-20 06:41:12.490 ,5,0,0.,12.0,0.,12.0,0.,12.0,0.,12.0
1979-07-20 06:41:24.490 ,5,0,0.,12.0,0.,12.0,0.,12.0,0.,12.0
1979-07-20 06:41:36.490 ,6,1,0.,12.0,0.,12.0,0.,12.0,0.,12.0
1979-07-20 06:41:48.490 ,6,1,0.,12.0,0.,12.0,0.,12.0,0.,12.0
1979-07-20 06:42:00.490 ,6,0,0.,12.0,0.,12.0,0.,12.0,0.,12.0
1979-07-20 06:42:12.490 ,6,0,0.,12.0,0.,12.0,0.,12.0,0.,12.0
1979-07-20 06:42:24.490 ,7,0,0.,12.0,0.,12.0,0.,12.0,0.,12.0
1979-07-20 06:42:36.490 ,7,0,0.,12.0,0.,12.0,0.,12.0,0.,12.0
1979-07-20 06:42:48.490 ,7,0,0.,12.0,0.,12.0,0.,12.0,0.,12.0
1979-07-20 06:43:00.490 ,7,0,0.,12.0,0.,12.0,0.,12.0,0.,12.0
1979-07-20 06:43:12.490 ,4,1,0.,12.0,0.,12.0,0.,12.0,0.,12.0
1979-07-20 06:43:24.490 ,4,1,0.,12.0,0.,12.0,0.,12.0,0.,12.0
1979-07-20 06:43:36.490 ,0,1,0.,12.0,0.,12.0,0.,12.0,0.,12.0
1979-07-20 06:43:48.490 ,0,1,0.,12.0,0.,12.0,0.,12.0,0.,12.0
1979-07-20 06:44:00.490 ,3,1,0.,12.0,0.,12.0,0.,12.0,0.,12.0
1979-07-20 06:44:12.490 ,3,1,0.,12.0,0.,12.0,0.,12.0,0.,12.0
1979-07-20 06:44:24.490 ,7,1,0.,12.0,0.,12.0,0.,12.0,0.,12.0
1979-07-20 06:44:36.490 ,7,1,0.,12.0,0.,12.0,0.,12.0,0.,12.0
1979-07-20 06:44:48.490 ,4,1,0.,12.0,0.,12.0,0.,12.0,0.,12.0
1979-07-20 06:45:00.490 ,4,1,0.,12.0,0.,12.0,0.,12.0,0.,12.0
1979-07-20 06:45:12.490 ,0,1,0.,12.0,0.,12.0,0.,12.0,0.,12.0
1979-07-20 06:45:24.490 ,0,1,0.,12.0,0.,12.0,0.,12.0,0.,12.0
1979-07-20 06:45:36.490 ,3,1,0.,12.0,0.,12.0,0.,12.0,0.,12.0
1979-07-20 06:45:48.490 ,3,1,0.,12.0,0.,12.0,0.,12.0,0.,12.0
1979-07-20 06:46:00.490 ,7,1,0.,12.0,0.,12.0,0.,12.0,0.,12.0
1979-07-20 06:46:12.490 ,7,1,0.,12.0,0.,12.0,0.,12.0,0.,12.0
1979-07-20 06:46:24.490 ,4,1,0.,12.0,0.,12.0,0.,12.0,0.,12.0
1979-07-20 06:46:36.490 ,4,1,0.,12.0,0.,12.0,0.,12.0,0.,12.0
1979-07-20 06:46:48.490 ,0,1,0.,12.0,0.,12.0,0.,12.0,0.,12.0
1979-07-20 06:47:00.490 ,0,1,0.,12.0,0.,12.0,0.,12.0,0.,12.0
1979-07-20 06:47:12.490 ,3,1,0.,12.0,0.,12.0,0.,12.0,0.,12.0
1979-07-20 06:47:24.490 ,3,1,0.,12.0,0.,12.0,0.,12.0,0.,12.0
1979-07-20 06:47:36.490 ,7,1,0.,12.0,0.,12.0,0.,12.0,0.,12.0
1979-07-20 06:47:48.490 ,7,1,0.,12.0,0.,12.0,0.,12.0,0.,12.0
1979-07-20 06:48:00.490 ,4,1,0.,12.0,0.,12.0,0.,12.0,0.,12.0
1979-07-20 06:48:12.490 ,4,1,0.,12.0,0.,12.0,0.,12.0,0.,12.0
1979-07-20 06:48:24.490 ,0,1,0.,12.0,0.,12.0,0.,12.0,0.,12.0
1979-07-20 06:48:36.490 ,0,1,0.,12.0,0.,12.0,0.,12.0,0.,12.0
1979-07-20 06:48:48.490 ,3,1,0.,12.0,0.,12.0,0.,12.0,0.,12.0
1979-07-20 06:49:00.490 ,3,1,0.,12.0,0.,12.0,0.,12.0,0.,12.0
1979-07-20 06:49:12.490 ,7,1,0.,12.0,0.,12.0,0.,12.0,0.,12.0
1979-07-20 06:49:24.490 ,7,1,0.,12.0,0.,12.0,0.,12.0,0.,12.0
1979-07-20 06:49:36.490 ,4,1,0.,12.0,0.,12.0,0.,12.0,0.,12.0
1979-07-20 06:49:48.490 ,4,1,0.,12.0,0.,12.0,0.,12.0,0.,12.0
1979-07-20 06:50:00.490 ,0,1,0.,12.0,0.,12.0,0.,12.0,0.,12.0
1979-07-20 06:50:12.490 ,0,1,0.,12.0,0.,12.0,0.,12.0,0.,12.0
1979-07-20 06:50:24.490 ,3,1,0.,12.0,0.,12.0,0.,12.0,0.,12.0
1979-07-20 06:50:36.490 ,3,1,0.,12.0,0.,12.0,0.,12.0,0.,12.0
1979-07-20 06:50:48.490 ,7,1,0.,12.0,0.,12.0,0.,12.0,0.,12.0
1979-07-20 06:51:00.490 ,7,1,0.,12.0,0.,12.0,0.,12.0,0.,12.0
1979-07-20 06:51:12.490 ,4,1,0.,12.0,0.,12.0,0.,12.0,0.,12.0
1979-07-20 06:51:24.490 ,4,1,0.,12.0,0.,12.0,0.,12.0,0.,12.0
1979-07-20 06:51:36.490 ,0,1,0.,12.0,0.,12.0,0.,12.0,0.,12.0
1979-07-20 06:51:48.490 ,0,1,0.,12.0,0.,12.0,0.,12.0,0.,12.0
1979-07-20 06:52:00.490 ,3,1,0.,12.0,0.,12.0,0.,12.0,0.,12.0
1979-07-20 06:52:12.490 ,3,1,0.,12.0,0.,12.0,0.,12.0,0.,12.0
1979-07-20 06:52:24.490 ,7,1,0.,12.0,0.,12.0,0.,12.0,0.,12.0
1979-07-20 06:52:36.490 ,7,1,0.,12.0,0.,12.0,0.,12.0,0.,12.0
1979-07-20 06:52:48.490 ,4,1,0.,12.0,0.,12.0,0.,12.0,0.,12.0
1979-07-20 06:53:00.490 ,4,1,0.,12.0,0.,12.0,0.,12.0,0.,12.0
1979-07-20 06:53:12.490 ,0,1,0.,12.0,0.,12.0,0.,12.0,0.,12.0
1979-07-20 06:53:24.490 ,0,1,0.,12.0,0.,12.0,0.,12.0,0.,12.0
1979-07-20 06:53:36.490 ,0,0,0.,12.0,0.,12.0,0.,12.0,0.,12.0
1979-07-20 06:53:48.490 ,0,0,0.,12.0,0.,12.0,0.,12.0,0.,12.0
1979-07-20 06:54:00.490 ,0,0,0.,12.0,0.,12.0,0.,12.0,0.,12.0
1979-07-20 06:54:12.490 ,0,0,0.,12.0,0.,12.0,0.,12.0,0.,12.0
1979-07-20 06:54:24.490 ,5,1,0.,12.0,0.,12.0,0.,12.0,0.,12.0
1979-07-20 06:54:36.490 ,5,1,0.,12.0,0.,12.0,0.,12.0,0.,12.0
1979-07-20 06:54:48.490 ,5,0,0.,12.0,0.,12.0,0.,12.0,0.,12.0
1979-07-20 06:55:00.490 ,5,0,0.,12.0,0.,12.0,0.,12.0,0.,12.0
1979-07-20 06:55:12.490 ,4,1,0.,12.0,0.,12.0,0.,12.0,0.,12.0
1979-07-20 06:55:24.490 ,4,1,0.,12.0,0.,12.0,0.,12.0,0.,12.0
1979-07-20 06:55:36.490 ,4,0,0.,12.0,0.,12.0,0.,12.0,0.,12.0
1979-07-20 06:55:48.490 ,4,0,0.,12.0,0.,12.0,0.,12.0,0.,12.0
1979-07-20 06:56:00.490 ,3,1,0.,12.0,0.,12.0,0.,12.0,0.,12.0
1979-07-20 06:56:12.490 ,3,1,0.,12.0,0.,12.0,0.,12.0,0.,12.0
1979-07-20 06:56:24.490 ,3,0,0.,12.0,0.,12.0,0.,12.0,0.,12.0
1979-07-20 06:56:36.490 ,3,0,0.,12.0,0.,12.0,0.,12.0,0.,12.0
1979-07-20 06:56:48.490 ,2,1,0.,12.0,0.,12.0,0.,12.0,0.,12.0
1979-07-20 06:57:00.490 ,2,1,0.,12.0,0.,12.0,0.,12.0,0.,12.0
1979-07-20 06:57:12.490 ,2,0,0.,12.0,0.,12.0,0.,12.0,0.,12.0
1979-07-20 06:57:24.490 ,2,0,0.,12.0,0.,12.0,0.,12.0,0.,12.0
1979-07-20 06:57:36.490 ,1,1,0.,12.0,0.,12.0,0.,12.0,0.,12.0
1979-07-20 06:57:48.490 ,1,1,0.,12.0,0.,12.0,0.,12.0,0.,12.0
1979-07-20 06:58:00.490 ,1,0,0.,12.0,0.,12.0,0.,12.0,0.,12.0
1979-07-20 06:58:12.490 ,1,0,0.,12.0,0.,12.0,0.,12.0,0.,12.0
1979-07-20 06:58:24.490 ,0,1,0.,12.0,0.,12.0,0.,12.0,0.,12.0
1979-07-20 06:58:36.490 ,0,1,0.,12.0,0.,12.0,0.,12.0,0.,12.0
1979-07-20 06:58:48.490 ,0,0,0.,12.0,0.,12.0,0.,12.0,0.,12.0
1979-07-20 06:59:00.490 ,0,0,0.,12.0,0.,12.0,0.,12.0,0.,12.0
1979-07-20 06:59:12.490 ,0,1,0.,12.0,0.,12.0,0.,12.0,0.,12.0
1979-07-20 06:59:24.490 ,0,1,0.,12.0,0.,12.0,0.,12.0,0.,12.0
1979-07-20 06:59:36.490 ,0,0,0.,12.0,0.,12.0,0.,12.0,0.,12.0
1979-07-20 06:59:48.490 ,0,0,0.,12.0,0.,12.0,0.,12.0,0.,12.0
1979-07-20 07:00:00.490 ,1,1,0.,12.0,0.,12.0,0.,12.0,0.,12.0
1979-07-20 07:00:12.490 ,1,1,0.,12.0,1.,12.0,0.,12.0,0.,12.0
1979-07-20 07:00:24.490 ,1,0,0.,12.0,0.,12.0,0.,12.0,0.,12.0
1979-07-20 07:00:36.490 ,1,0,0.,12.0,0.,12.0,0.,12.0,0.,12.0
1979-07-20 07:00:48.490 ,2,1,0.,12.0,0.,12.0,0.,12.0,0.,12.0
1979-07-20 07:01:00.490 ,2,1,0.,12.0,0.,12.0,0.,12.0,0.,12.0
1979-07-20 07:01:12.490 ,2,0,0.,12.0,0.,12.0,0.,12.0,0.,12.0
1979-07-20 07:01:24.490 ,2,0,0.,12.0,0.,12.0,0.,12.0,0.,12.0
1979-07-20 07:01:36.490 ,3,1,0.,12.0,0.,12.0,0.,12.0,0.,12.0
1979-07-20 07:01:48.490 ,3,1,0.,12.0,0.,12.0,0.,12.0,0.,12.0
1979-07-20 07:02:00.490 ,3,0,0.,12.0,0.,12.0,0.,12.0,0.,12.0
1979-07-20 07:02:12.490 ,3,0,0.,12.0,0.,12.0,0.,12.0,0.,12.0
1979-07-20 07:02:24.490 ,4,1,0.,12.0,0.,12.0,0.,12.0,0.,12.0
1979-07-20 07:02:36.490 ,4,1,0.,12.0,0.,12.0,0.,12.0,0.,12.0
1979-07-20 07:02:48.490 ,4,0,0.,12.0,0.,12.0,0.,12.0,0.,12.0
1979-07-20 07:03:00.490 ,4,0,0.,12.0,0.,12.0,0.,12.0,0.,12.0
1979-07-20 07:03:12.490 ,5,1,0.,12.0,0.,12.0,0.,12.0,0.,12.0
1979-07-20 07:03:24.490 ,5,1,0.,12.0,0.,12.0,0.,12.0,0.,12.0
1979-07-20 07:03:36.490 ,5,0,0.,12.0,0.,12.0,0.,12.0,0.,12.0
1979-07-20 07:03:48.490 ,5,0,0.,12.0,0.,12.0,0.,12.0,0.,12.0
1979-07-20 07:04:00.490 ,6,1,0.,12.0,0.,12.0,0.,12.0,0.,12.0
1979-07-20 07:04:12.490 ,6,1,0.,12.0,0.,12.0,0.,12.0,0.,12.0
1979-07-20 07:04:24.490 ,6,0,0.,12.0,0.,12.0,0.,12.0,0.,12.0
1979-07-20 07:04:36.490 ,6,0,0.,12.0,0.,12.0,0.,12.0,0.,12.0
1979-07-20 07:04:48.490 ,7,1,0.,12.0,0.,12.0,0.,12.0,0.,12.0
1979-07-20 07:05:00.490 ,7,1,0.,12.0,0.,12.0,0.,12.0,0.,12.0
1979-07-20 07:05:12.490 ,7,0,0.,12.0,0.,12.0,0.,12.0,0.,12.0
1979-07-20 07:05:24.490 ,7,0,0.,12.0,0.,12.0,0.,12.0,0.,12.0
1979-07-20 07:05:36.490 ,7,1,0.,12.0,0.,12.0,0.,12.0,0.,12.0
1979-07-20 07:05:48.490 ,7,1,0.,12.0,0.,12.0,0.,12.0,0.,12.0
1979-07-20 07:06:00.490 ,7,0,0.,12.0,0.,12.0,0.,12.0,0.,12.0
1979-07-20 07:06:12.490 ,7,0,0.,12.0,0.,12.0,0.,12.0,0.,12.0
1979-07-20 07:06:24.490 ,6,1,0.,12.0,0.,12.0,0.,12.0,0.,12.0
1979-07-20 07:06:36.490 ,6,1,0.,12.0,0.,12.0,0.,12.0,0.,12.0
1979-07-20 07:06:48.490 ,6,0,0.,12.0,0.,12.0,0.,12.0,0.,12.0
1979-07-20 07:07:00.490 ,6,0,0.,12.0,0.,12.0,0.,12.0,0.,12.0
1979-07-20 07:07:12.490 ,5,1,0.,12.0,0.,12.0,0.,12.0,0.,12.0
1979-07-20 07:07:24.490 ,5,1,0.,12.0,0.,12.0,0.,12.0,0.,12.0
1979-07-20 07:07:36.490 ,5,0,0.,12.0,0.,12.0,0.,12.0,0.,12.0
1979-07-20 07:07:48.490 ,5,0,0.,12.0,0.,12.0,0.,12.0,0.,12.0
1979-07-20 07:08:00.490 ,4,1,0.,12.0,0.,12.0,0.,12.0,0.,12.0
1979-07-20 07:08:12.490 ,4,1,0.,12.0,0.,12.0,0.,12.0,0.,12.0
1979-07-20 07:08:24.490 ,4,0,0.,12.0,0.,12.0,0.,12.0,0.,12.0
1979-07-20 07:08:36.490 ,4,0,0.,12.0,0.,12.0,0.,12.0,0.,12.0
1979-07-20 07:08:48.490 ,3,1,0.,12.0,0.,12.0,0.,12.0,0.,12.0
1979-07-20 07:09:00.490 ,3,1,0.,12.0,0.,12.0,0.,12.0,0.,12.0
1979-07-20 07:09:12.490 ,3,0,1.,12.0,0.,12.0,0.,12.0,0.,12.0
1979-07-20 07:09:24.490 ,3,0,0.,12.0,0.,12.0,0.,12.0,0.,12.0
1979-07-20 07:09:36.490 ,2,1,1.,12.0,0.,12.0,0.,12.0,0.,12.0
1979-07-20 07:09:48.490 ,2,1,0.,12.0,0.,12.0,0.,12.0,0.,12.0
1979-07-20 07:10:00.490 ,2,0,0.,12.0,0.,12.0,0.,12.0,0.,12.0
1979-07-20 07:10:12.490 ,2,0,0.,12.0,0.,12.0,0.,12.0,0.,12.0
1979-07-20 07:10:24.490 ,1,1,0.,12.0,0.,12.0,0.,12.0,0.,12.0
1979-07-20 07:10:36.490 ,1,1,0.,12.0,0.,12.0,0.,12.0,0.,12.0
1979-07-20 07:10:48.490 ,1,0,0.,12.0,0.,12.0,0.,12.0,0.,12.0
1979-07-20 07:11:00.490 ,1,0,0.,12.0,0.,12.0,0.,12.0,0.,12.0
1979-07-20 07:11:12.490 ,0,1,0.,12.0,0.,12.0,0.,12.0,0.,12.0
1979-07-20 07:11:24.490 ,0,1,0.,12.0,0.,12.0,0.,12.0,0.,12.0
1979-07-20 07:11:36.490 ,0,0,0.,12.0,0.,12.0,0.,12.0,0.,12.0
1979-07-20 07:11:48.490 ,0,0,0.,12.0,0.,12.0,0.,12.0,0.,12.0
1979-07-20 07:12:00.490 ,0,1,0.,12.0,0.,12.0,0.,12.0,0.,12.0
1979-07-20 07:12:12.490 ,0,1,0.,12.0,0.,12.0,0.,12.0,0.,12.0
1979-07-20 07:12:24.490 ,0,0,0.,12.0,0.,12.0,0.,12.0,0.,12.0
1979-07-20 07:12:36.490 ,0,0,0.,12.0,0.,12.0,0.,12.0,0.,12.0
1979-07-20 07:12:48.490 ,1,1,0.,12.0,0.,12.0,0.,12.0,0.,12.0
1979-07-20 07:13:00.490 ,1,1,0.,12.0,0.,12.0,0.,12.0,0.,12.0
1979-07-20 07:13:12.490 ,1,0,0.,12.0,0.,12.0,0.,12.0,0.,12.0
1979-07-20 07:13:24.490 ,1,0,0.,12.0,0.,12.0,0.,12.0,0.,12.0
1979-07-20 07:13:36.490 ,2,1,0.,12.0,0.,12.0,0.,12.0,0.,12.0
1979-07-20 07:13:48.490 ,2,1,0.,12.0,0.,12.0,0.,12.0,0.,12.0
1979-07-20 07:14:00.490 ,2,0,0.,12.0,0.,12.0,0.,12.0,0.,12.0
1979-07-20 07:14:12.490 ,2,0,0.,12.0,0.,12.0,0.,12.0,0.,12.0
1979-07-20 07:14:24.490 ,3,1,0.,12.0,0.,12.0,0.,12.0,0.,12.0
1979-07-20 07:14:36.490 ,3,1,0.,12.0,0.,12.0,0.,12.0,0.,12.0
1979-07-20 07:14:48.490 ,3,0,0.,12.0,0.,12.0,0.,12.0,0.,12.0
1979-07-20 07:15:00.490 ,3,0,1.,12.0,0.,12.0,0.,12.0,0.,12.0
1979-07-20 07:15:12.490 ,4,1,0.,12.0,0.,12.0,0.,12.0,0.,12.0
1979-07-20 07:15:24.490 ,4,1,0.,12.0,0.,12.0,0.,12.0,0.,12.0
1979-07-20 07:15:36.490 ,4,0,0.,12.0,0.,12.0,0.,12.0,0.,12.0
1979-07-20 07:15:48.490 ,4,0,0.,12.0,0.,12.0,0.,12.0,0.,12.0
1979-07-20 07:16:00.490 ,5,1,0.,12.0,0.,12.0,0.,12.0,0.,12.0
1979-07-20 07:16:12.490 ,5,1,0.,12.0,0.,12.0,0.,12.0,0.,12.0
1979-07-20 07:16:24.490 ,5,0,0.,12.0,0.,12.0,0.,12.0,0.,12.0
1979-07-20 07:16:36.490 ,5,0,0.,12.0,0.,12.0,0.,12.0,0.,12.0
1979-07-20 07:16:48.490 ,6,1,0.,12.0,0.,12.0,0.,12.0,0.,12.0
1979-07-20 07:17:00.490 ,6,1,0.,12.0,0.,12.0,0.,12.0,0.,12.0
1979-07-20 07:17:12.490 ,6,0,0.,12.0,0.,12.0,0.,12.0,0.,12.0
1979-07-20 07:17:24.490 ,6,0,0.,12.0,0.,12.0,0.,12.0,0.,12.0
1979-07-20 07:17:36.490 ,7,1,0.,12.0,0.,12.0,0.,12.0,0.,12.0
1979-07-20 07:17:48.490 ,7,1,0.,12.0,0.,12.0,0.,12.0,0.,12.0
1979-07-20 07:18:00.490 ,7,0,0.,12.0,0.,12.0,0.,12.0,0.,12.0